When you browse on this site, cookies collect data to enhance your experience and personalize the content and advertising you see.
Visit our Privacy Policy to learn more. By continuing to use the site, you agree to this use of cookies and data.
  • In Portugal
  • List of Countries
  • For 7 days
  • Water Temperature
  • Satellite Maps
  • Weather Map
  • Weather Widgets
  • user-avatar
    Login

    Hourly Weather Oruro

    Today, 16 January, Wednesday

    Time Temperature Precipitation Wind Pressure Humidity
    00:00 +8°C° 0 mm 5 mps 477 mmHg 61%
    01:00 +8°C° 0 mm 4 mps 477 mmHg 63%
    02:00 +7°C° 0 mm 4 mps 476 mmHg 67%
    03:00 +8°C° 0 mm 3 mps 476 mmHg 69%
    04:00 +7°C° 0 mm 3 mps 476 mmHg 71%
    05:00 +7°C° 0 mm 3 mps 475 mmHg 73%
    06:00 +8°C° 0 mm 3 mps 476 mmHg 69%
    07:00 +8°C° 0 mm 3 mps 477 mmHg 66%
    08:00 +9°C° 0 mm 3 mps 478 mmHg 62%
    09:00 +11°C° 0 mm 3 mps 479 mmHg 55%
    10:00 +13°C° 0 mm 3 mps 480 mmHg 48%
    11:00 +14°C° 0 mm 3 mps 481 mmHg 41%
    12:00 +15°C° 0.2 mm 4 mps 481 mmHg 40%
    13:00 +17°C° 0.2 mm 4 mps 481 mmHg 38%
    14:00 +17°C° 0.2 mm 5 mps 480 mmHg 37%
    15:00 +16°C° 0.2 mm 5 mps 480 mmHg 38%
    16:00 +16°C° 0.2 mm 6 mps 480 mmHg 38%
    17:00 +16°C° 0.2 mm 6 mps 479 mmHg 39%
    18:00 +14°C° 0 mm 6 mps 479 mmHg 44%
    19:00 +12°C° 0 mm 7 mps 478 mmHg 49%
    20:00 +10°C° 0 mm 7 mps 477 mmHg 54%
    21:00 +10°C° 0 mm 6 mps 477 mmHg 55%
    22:00 +10°C° 0 mm 4 mps 477 mmHg 56%
    23:00 +10°C° 0 mm 3 mps 478 mmHg 57%

    Tomorrow, 17 January, Thursday

    Time Temperature Precipitation Wind Pressure Humidity
    00:00 +9°C° 0 mm 3 mps 477 mmHg 59%
    01:00 +9°C° 0 mm 3 mps 477 mmHg 61%
    02:00 +8°C° 0 mm 3 mps 477 mmHg 62%
    03:00 +8°C° 0 mm 3 mps 476 mmHg 64%
    04:00 +8°C° 0 mm 3 mps 476 mmHg 66%
    05:00 +7°C° 0 mm 2 mps 476 mmHg 67%
    06:00 +8°C° 0 mm 2 mps 476 mmHg 64%
    07:00 +9°C° 0 mm 2 mps 477 mmHg 61%
    08:00 +9°C° 0 mm 2 mps 478 mmHg 57%
    09:00 +12°C° 0 mm 2 mps 479 mmHg 51%
    10:00 +14°C° 0 mm 2 mps 480 mmHg 44%
    11:00 +16°C° 0 mm 2 mps 480 mmHg 38%
    12:00 +17°C° 0 mm 2 mps 480 mmHg 36%
    13:00 +17°C° 0 mm 3 mps 480 mmHg 34%
    14:00 +18°C° 0 mm 4 mps 480 mmHg 32%
    15:00 +18°C° 0 mm 4 mps 480 mmHg 32%
    16:00 +17°C° 0 mm 5 mps 480 mmHg 33%
    17:00 +17°C° 0 mm 6 mps 479 mmHg 33%
    18:00 +15°C° 0 mm 7 mps 479 mmHg 39%
    19:00 +14°C° 0 mm 7 mps 478 mmHg 44%
    20:00 +11°C° 0 mm 8 mps 477 mmHg 50%
    21:00 +10°C° 0 mm 7 mps 477 mmHg 52%
    22:00 +9°C° 0 mm 6 mps 478 mmHg 53%
    23:00 +9°C° 0 mm 6 mps 478 mmHg 55%

    Day after tomorrow, 18 January, Friday

    Time Temperature Precipitation Wind Pressure Humidity
    00:00 +8°C° 0 mm 6 mps 477 mmHg 58%
    01:00 +8°C° 0 mm 6 mps 477 mmHg 61%
    02:00 +8°C° 0 mm 5 mps 477 mmHg 64%
    03:00 +7°C° 0 mm 4 mps 476 mmHg 65%
    04:00 +8°C° 0 mm 3 mps 476 mmHg 66%
    05:00 +8°C° 0 mm 2 mps 476 mmHg 67%
    06:00 +8°C° 0 mm 3 mps 477 mmHg 65%
    07:00 +9°C° 0 mm 3 mps 477 mmHg 62%
    08:00 +9°C° 0 mm 3 mps 478 mmHg 60%
    09:00 +11°C° 0 mm 4 mps 479 mmHg 54%
    10:00 +12°C° 0 mm 4 mps 480 mmHg 47%
    11:00 +14°C° 0 mm 5 mps 480 mmHg 41%
    12:00 +15°C° 0 mm 6 mps 481 mmHg 37%
    13:00 +16°C° 0 mm 6 mps 481 mmHg 34%
    14:00 +17°C° 0 mm 7 mps 481 mmHg 30%
    15:00 +16°C° 0 mm 7 mps 480 mmHg 31%
    16:00 +16°C° 0 mm 7 mps 480 mmHg 32%
    17:00 +16°C° 0 mm 7 mps 479 mmHg 33%
    18:00 +14°C° 0 mm 7 mps 478 mmHg 40%
    19:00 +11°C° 0 mm 7 mps 478 mmHg 46%
    20:00 +10°C° 0 mm 7 mps 477 mmHg 53%
    21:00 +9°C° 0 mm 7 mps 477 mmHg 55%
    22:00 +9°C° 0 mm 6 mps 477 mmHg 57%
    23:00 +8°C° 0 mm 6 mps 477 mmHg 59%

    19 January, Saturday

    Time Temperature Precipitation Wind Pressure Humidity
    00:00 +8°C° 0 mm 5 mps 477 mmHg 61%
    01:00 +7°C° 0 mm 5 mps 476 mmHg 63%
    02:00 +7°C° 0 mm 4 mps 476 mmHg 65%
    03:00 +7°C° 0 mm 4 mps 476 mmHg 66%
    04:00 +7°C° 0 mm 3 mps 476 mmHg 68%
    05:00 +7°C° 0 mm 3 mps 476 mmHg 69%
    06:00 +8°C° 0 mm 2 mps 476 mmHg 66%
    07:00 +8°C° 0 mm 2 mps 477 mmHg 64%
    08:00 +8°C° 0 mm 2 mps 478 mmHg 62%
    09:00 +10°C° 0 mm 2 mps 479 mmHg 55%
    10:00 +12°C° 0 mm 3 mps 479 mmHg 49%
    11:00 +13°C° 0 mm 3 mps 480 mmHg 43%
    12:00 +14°C° 0.2 mm 3 mps 480 mmHg 41%
    13:00 +15°C° 0.2 mm 4 mps 480 mmHg 39%
    14:00 +17°C° 0.2 mm 4 mps 480 mmHg 37%
    15:00 +17°C° 0.1 mm 4 mps 480 mmHg 37%
    16:00 +17°C° 0.1 mm 4 mps 479 mmHg 38%
    17:00 +17°C° 0.1 mm 3 mps 479 mmHg 38%
    18:00 +15°C° 0.1 mm 4 mps 479 mmHg 43%
    19:00 +13°C° 0.1 mm 6 mps 478 mmHg 47%
    20:00 +11°C° 0.1 mm 7 mps 478 mmHg 52%
    21:00 +10°C° 0 mm 6 mps 478 mmHg 55%
    22:00 +10°C° 0 mm 6 mps 478 mmHg 57%
    23:00 +9°C° 0 mm 6 mps 478 mmHg 60%

    20 January, Sunday

    Time Temperature Precipitation Wind Pressure Humidity
    00:00 +8°C° 0 mm 5 mps 478 mmHg 62%
    01:00 +8°C° 0 mm 4 mps 477 mmHg 63%
    02:00 +8°C° 0 mm 4 mps 477 mmHg 64%
    03:00 +8°C° 0 mm 3 mps 477 mmHg 65%
    04:00 +8°C° 0 mm 3 mps 476 mmHg 66%
    05:00 +8°C° 0 mm 2 mps 476 mmHg 67%
    06:00 +9°C° 0 mm 2 mps 477 mmHg 65%
    07:00 +9°C° 0 mm 3 mps 478 mmHg 63%
    08:00 +10°C° 0 mm 3 mps 478 mmHg 61%
    09:00 +11°C° 0 mm 3 mps 479 mmHg 55%
    10:00 +13°C° 0 mm 3 mps 480 mmHg 48%
    11:00 +15°C° 0 mm 2 mps 481 mmHg 42%
    12:00 +16°C° 0 mm 2 mps 481 mmHg 39%
    13:00 +17°C° 0 mm 2 mps 480 mmHg 36%
    14:00 +17°C° 0 mm 2 mps 480 mmHg 34%
    15:00 +17°C° 0 mm 3 mps 480 mmHg 35%
    16:00 +17°C° 0 mm 4 mps 479 mmHg 36%
    17:00 +17°C° 0 mm 6 mps 479 mmHg 37%
    18:00 +15°C° 0 mm 6 mps 478 mmHg 43%
    19:00 +14°C° 0 mm 7 mps 478 mmHg 49%
    20:00 +11°C° 0 mm 8 mps 477 mmHg 55%
    21:00 +10°C° 0 mm 7 mps 477 mmHg 59%
    22:00 +9°C° 0 mm 7 mps 477 mmHg 63%
    23:00 +8°C° 0 mm 6 mps 477 mmHg 66%

    21 January, Monday

    Time Temperature Precipitation Wind Pressure Humidity
    00:00 +8°C° 0 mm 5 mps 477 mmHg 68%
    01:00 +8°C° 0 mm 4 mps 476 mmHg 69%
    02:00 +7°C° 0 mm 4 mps 476 mmHg 70%
    03:00 +8°C° 0 mm 3 mps 475 mmHg 72%
    04:00 +7°C° 0 mm 3 mps 475 mmHg 74%
    05:00 +7°C° 0 mm 2 mps 475 mmHg 75%
    06:00 +8°C° 0 mm 2 mps 476 mmHg 70%
    07:00 +9°C° 0 mm 2 mps 476 mmHg 65%
    08:00 +9°C° 0 mm 2 mps 477 mmHg 59%
    09:00 +12°C° 0 mm 2 mps 478 mmHg 52%
    10:00 +14°C° 0 mm 2 mps 479 mmHg 44%
    11:00 +16°C° 0 mm 2 mps 480 mmHg 36%
    12:00 +17°C° 0 mm 3 mps 480 mmHg 33%
    13:00 +18°C° 0 mm 3 mps 480 mmHg 30%
    14:00 +19°C° 0 mm 3 mps 480 mmHg 26%
    15:00 +19°C° 0 mm 4 mps 480 mmHg 29%
    16:00 +17°C° 0 mm 5 mps 479 mmHg 31%
    17:00 +17°C° 0 mm 6 mps 478 mmHg 33%
    18:00 +16°C° 0 mm 7 mps 478 mmHg 40%
    19:00 +14°C° 0 mm 7 mps 478 mmHg 48%
    20:00 +12°C° 0 mm 8 mps 477 mmHg 55%
    21:00 +11°C° 0 mm 7 mps 477 mmHg 58%
    22:00 +10°C° 0 mm 7 mps 477 mmHg 62%
    23:00 +9°C° 0 mm 6 mps 477 mmHg 65%
    Show more